CZ-4C R/B (49496 NORAD) Tracking and Keplerian Element Data

This shows tracking and keplerian element data for the satellite.

Feedback or suggestion? Click here.




ElementValue
Catalog49496
NameCZ-4C R/B
Epoch Orbit404
Epoch Day354.49806973
Epoch Year2021
RAAN0.5791
Inclination98.3891
Eccentricity0.0122736
Argument of Perigee323.5439
Mean Anonmoly35.7455
Mean Motion14.7197873
Decay Rate4.69E-06
L11 49496U 21109B 21354.49806973 .00000469 00000+0 75428-4 0 9994
L22 49496 98.3891 0.5791 0122736 323.5439 35.7455 14.71978730 4048



Live tracking and technical data element details for CZ-4C R/B (NORAD 49496). CZ-4C R/B can be tracked NOW for your location showing map with azimuth and elevation plus other details from your city location.







IsCatalogInMostPopularTable: catalog: 49496, numindb: 43
Update: records affected: 1



GetName: 49496 CZ-4C R/B

Hit Count: updated at: Sun, 28 May 2023 05:43:33 GMT